Location: Lake Almanor
(40.2485°N, 121.1442°W)
Time: 13:00:52
(UTC-08:00)

STARLINK-1086 - Pass Details

Date: 31 January 2020
Orbit: 349 x 351 km, 53.0° (Epoch: 18 February)

Event Time Altitude Azimuth Distance (km) Brightness Sun altitude
Rises 18:08:33 0° 315° (NW) 2,165 7.1 -9.3°
Reaches altitude 10° 18:10:41 10° 325° (NW) 1,320 5.8 -9.7°
Maximum altitude 18:13:24 33° 33° (NNE) 616 3.5 -10.2°
Enters shadow 18:15:15 16° 91° (E) 1,008 4.4 -10.6°
